Starlink 32593

operational
NORAD ID: 61974 Int'l Des: 2024-210 Owner: SPXS Country: US Constellation: starlink
LEOCIRCULAR

Über Starlink 32593

Beschreibung wird geladen...

Live-Position

3D-Globus wird geladen...

Nächste Überflüge

Höhenverlauf

Altitude vs Time

uPlot chart will show altitude changes over time

Zweizeiliger Elementsatz

1 61974U 24210R 25258.24772628 .00054188 00000-0 19610-2 0 9991
2 61974 43.0050 91.0357 0001995 267.2117 92.8507 15.27634520 48048
Epoch: 15. Sept. 2025 • Age: 13 hours

Aktueller Status

Höhe 482.2 km
Geschwindigkeit 7.63 km/s
Subsatellitenpunkt 12.54°N, 28.85°W
Startdatum 14. Nov. 2024
Alter 0.8 years
Typ internet

Technische Details

Klassifizierung Payload
Masse 730.00 kg
Trockenmasse 700.00 kg
Gesamtmasse 730.00 kg
Länge 0.30 m
Durchmesser 4.10 m
Spannweite 29.00 m
Form Box + pan
Hersteller SPXS
Bus-Typ Starlink V2M
Phasenstatus In Orbit
Besitzer/Staat SPXS/US

Große Konstellationen

Loading constellations...